[[{"header":{"parameterUnit":"m.s-1","parameterCategory":1,"la1":30.2991,"la2":30.254,"lo1":-89.0895,"lo2":-89.0444,"dy":0.0017,"dx":0.0017,"nx":28,"ny":28,"refTime":"2024-05-21T03:00:00:Z","depth":0,"parameterNumber":2,"parameterNumberName":"U-component_of_WINDS"},"data":[0,0,0,0,0,0,0,0,0,0,0,0,0,0,0,0,0,0,0,0,0,0,0,0,0,0,0,0,0,0,0,0,0,0,0,0,0,0,0,0,0,0,0,0,0,0,0,0,0,0,0,0,0,0,0,0,0,0,-1.194,-1.1941,0,-1.1986,-1.1986,-1.1987,-1.1975,-1.1974,-1.1974,-1.1973,-1.2021,-1.2023,-1.2025,0,0,0,0,0,0,0,0,0,0,0,0,0,-1.1846,-1.1848,-1.194,-1.1941,-1.1941,-1.1986,-1.1986,-1.1987,-1.1975,-1.1974,-1.1973,-1.1972,-1.202,-1.2023,-1.2026,0,0,0,0,0,0,0,0,0,0,0,0,0,-1.1889,-1.1848,-1.194,-1.1941,-1.1942,-1.1986,-1.1986,-1.1987,-1.1976,-1.1974,-1.1973,-1.1972,-1.202,-1.2023,-1.2026,-1.2072,0,0,-1.2036,-1.2037,0,0,0,0,0,0,0,0,-1.1886,-1.1892,-1.194,-1.1941,-1.1942,-1.1973,-1.1971,-1.2016,-1.1976,-1.1963,-1.1973,-1.1971,-1.2007,-1.2011,-1.2022,-1.2075,-1.2077,-1.2036,-1.2038,-1.2039,-1.204,0,0,0,0,0,0,0,-1.1883,-1.189,-1.1958,-1.1941,-1.1942,-1.194,-1.1944,-1.1979,-1.1992,-1.1964,-1.1963,-1.1969,-1.2007,-1.2019,-1.2023,-1.2078,-1.2036,-1.2039,-1.2041,-1.2042,-1.2171,-1.2173,0,0,0,0,0,0,-1.1879,-1.1888,-1.1957,-1.196,-1.191,-1.1943,-1.1948,-1.1965,-1.1991,-1.1994,-1.197,-1.1968,-1.2014,-1.202,-1.2025,-1.2081,-1.2039,-1.2042,-1.2044,-1.217,-1.2171,-1.2173,0,0,0,0,0,0,-1.1877,-1.1886,-1.1955,-1.1924,-1.1932,-1.1946,-1.1965,-1.1966,-1.1979,-1.1996,-1.1998,-1.198,-1.2014,-1.202,-1.2061,-1.2083,-1.2044,-1.2047,-1.2168,-1.217,-1.2172,-1.2195,0,0,0,0,0,0,-1.1875,-1.1885,-1.1902,-1.1924,-1.1934,-1.1989,-1.1966,-1.1968,-1.1984,-1.1982,-1.2006,-1.2009,-1.2013,-1.2056,-1.2064,-1.2087,-1.2049,-1.2166,-1.2169,-1.2172,-1.2192,-1.2197,-1.2202,0,0,0,0,0,-1.1871,-1.1907,-1.1903,-1.1912,-1.1956,-1.1991,-1.1997,-1.2,-1.1986,-1.2004,-1.2015,-1.2008,-1.2079,-1.206,-1.2069,-1.2093,-1.2165,-1.2168,-1.2171,-1.219,-1.2196,-1.2202,0,0,0,0,0,0,-1.1889,-1.191,-1.1906,-1.195,-1.1968,-1.1989,-1.2011,-1.2007,-1.2031,-1.2028,-1.2032,-1.2038,-1.2079,-1.209,-1.2068,-1.214,-1.212,-1.2125,-1.2131,-1.2137,-1.2142,-1.2139,-1.2052,0,0,0,0,0,-1.1897,-1.1923,-1.1941,-1.1978,-1.1987,-1.1998,-1.2013,-1.2014,-1.2034,-1.2042,-1.2056,-1.2076,-1.2103,-1.2121,-1.2147,-1.2194,-1.2199,-1.2215,-1.222,-1.2224,-1.2228,-1.2254,-1.2262,-1.2184,-1.2184,-1.2184,0,0,-1.1916,-1.1931,-1.1947,-1.1982,-1.1996,-1.2024,-1.2005,-1.2034,-1.2055,-1.2047,-1.2086,-1.2097,-1.212,-1.2163,-1.2183,-1.2174,-1.2251,-1.2228,-1.2231,-1.2234,-1.2259,-1.2266,-1.2272,-1.2187,-1.2186,-1.2186,0,0,-1.1964,-1.1977,-1.201,-1.2025,-1.2047,-1.2054,-1.2061,-1.2083,-1.2089,-1.2128,-1.2123,-1.2148,-1.2194,-1.2211,-1.2225,-1.228,-1.2274,-1.2288,-1.2314,-1.234,-1.2346,-1.2351,-1.2371,-1.2378,-1.2292,-1.2292,-1.2292,0,-1.1984,-1.2024,-1.2027,-1.2057,-1.2073,-1.2066,-1.21,-1.2114,-1.2144,-1.2155,-1.2144,-1.2202,-1.2217,-1.2265,-1.2278,-1.229,-1.23,-1.2285,-1.2344,-1.235,-1.2355,-1.2374,-1.2381,-1.2294,-1.2294,-1.2294,-1.2293,0,-1.2049,-1.2077,-1.21,-1.2129,-1.2147,-1.2179,-1.2187,-1.2205,-1.2205,-1.2213,-1.2253,-1.2271,-1.23,-1.2311,-1.2312,-1.2359,-1.2353,-1.2343,-1.2323,-1.2364,-1.2381,-1.2389,-1.2296,-1.2296,-1.2295,-1.2295,0,0,-1.2108,-1.2137,-1.2146,-1.2159,-1.2183,-1.2205,-1.2237,-1.2265,-1.2281,-1.2302,-1.2329,-1.2368,-1.2359,-1.2376,-1.2378,-1.24,-1.2443,-1.2388,-1.2389,-1.2398,-1.2497,-1.2504,-1.2512,-1.2439,-1.2441,-1.2442,-1.2495,0,-1.2158,-1.2213,-1.2216,-1.2266,-1.2293,-1.2287,-1.2315,-1.2333,-1.2342,-1.2366,-1.2376,-1.2404,-1.239,-1.24,-1.2421,-1.2433,-1.2463,-1.2429,-1.2465,-1.2466,-1.246,-1.2522,-1.2529,-1.2578,-1.2502,-1.2503,-1.2504,0,-1.2224,-1.2246,-1.2298,-1.2319,-1.233,-1.2355,-1.2381,-1.2404,-1.2425,-1.243,-1.2448,-1.2447,-1.2481,-1.246,-1.2506,-1.2483,-1.2498,-1.2506,-1.2508,-1.2512,-1.2488,-1.2527,-1.2594,-1.2602,-1.2515,-1.2514,-1.2513,0,-1.2262,-1.2305,-1.2342,-1.2354,-1.2378,-1.2396,-1.2407,-1.2427,-1.2444,-1.2467,-1.2478,-1.2505,-1.252,-1.2541,-1.2548,-1.2532,-1.2594,-1.2573,-1.2599,-1.2599,-1.2613,-1.2612,-1.2683,-1.2622,-1.2622,-1.2622,-1.2622,0,-1.2318,-1.235,-1.236,-1.2383,-1.2419,-1.2423,-1.2459,-1.247,-1.2487,-1.2512,-1.2509,-1.2533,-1.2541,-1.2566,-1.2572,-1.2609,-1.2616,-1.2621,-1.2623,-1.2622,-1.2621,-1.2632,-1.2629,-1.2624,-1.2624,-1.2623,-1.2623,0,-1.2367,-1.2375,-1.2415,-1.2435,-1.2441,-1.2467,-1.2484,-1.2507,-1.2515,-1.2547,-1.2555,-1.2568,-1.2597,-1.2606,-1.2642,-1.2646,-1.269,-1.2688,-1.2683,-1.2683,-1.2709,-1.2706,-1.279,-1.2801,-1.2732,-1.2733,-1.2734,0,-1.2402,-1.2426,-1.2449,-1.2465,-1.2477,-1.2504,-1.2521,-1.2526,-1.2544,-1.2569,-1.2589,-1.2618,-1.2642,-1.269,-1.2703,-1.2731,-1.273,-1.2757,-1.2734,-1.2732,-1.273,-1.2729,-1.2731,-1.2761,-1.2762,-1.2763,-1.2763,0,-1.2463,-1.2466,-1.249,-1.2515,-1.2535,-1.2556,-1.2576,-1.259,-1.2598,-1.2618,-1.2648,-1.2666,-1.2703,-1.2732,-1.2761,-1.2773,-1.277,-1.277,-1.2778,-1.2777,-1.2773,-1.2776,-1.2695,-1.2768,-1.2768,-1.2767,-1.2767,-1.2767,-1.2506,-1.2528,-1.2547,-1.2574,-1.259,-1.2608,-1.263,-1.2641,-1.2666,-1.2695,-1.2697,-1.273,-1.2751,-1.2788,-1.2802,-1.2828,-1.282,-1.2831,-1.2834,-1.2837,-1.2839,-1.2769,-1.2833,-1.2833,-1.2833,-1.2833,-1.2833,0,-1.2568,-1.258,-1.2604,-1.2632,-1.2653,-1.2647,-1.2669,-1.2688,-1.2716,-1.2736,-1.2759,-1.2794,-1.2822,-1.2838,-1.2866,-1.2884,-1.2884,-1.2892,-1.2891,-1.2894,-1.2844,-1.2835,-1.2892,-1.2892,-1.2892,-1.2892,-1.2892,-1.2892,-1.2602,-1.2638,-1.2643,-1.2688,-1.27,-1.2731,-1.2744,-1.2762,-1.2777,-1.2816,-1.2839,-1.2849,-1.2867,-1.2897,-1.2923,-1.2927,-1.2937,-1.2946,-1.295,-1.2903,-1.2897,-1.2891,-1.2883,-1.2949,-1.2949,-1.2997,-1.2997,-1.2998]},{"header":{"parameterUnit":"m.s-1","parameterCategory":1,"la1":30.2991,"la2":30.254,"lo1":-89.0895,"lo2":-89.0444,"dy":0.0017,"dx":0.0017,"nx":28,"ny":28,"refTime":"2024-05-21T03:00:00:Z","depth":0,"parameterNumber":3,"parameterNumberName":"V-component_of_WINDS"},"data":[0,0,0,0,0,0,0,0,0,0,0,0,0,0,0,0,0,0,0,0,0,0,0,0,0,0,0,0,0,0,0,0,0,0,0,0,0,0,0,0,0,0,0,0,0,0,0,0,0,0,0,0,0,0,0,0,0,0,2.396,2.396,0,2.3965,2.3965,2.3965,2.393,2.3929,2.3928,2.3927,2.393,2.3931,2.3932,0,0,0,0,0,0,0,0,0,0,0,0,0,2.3921,2.3922,2.396,2.396,2.396,2.3965,2.3965,2.3965,2.393,2.3929,2.3927,2.3926,2.393,2.3931,2.3933,0,0,0,0,0,0,0,0,0,0,0,0,0,2.3933,2.3922,2.396,2.3944,2.3942,2.3965,2.3965,2.3965,2.393,2.3929,2.3927,2.3926,2.393,2.3931,2.3933,2.3971,0,0,2.3937,2.3938,0,0,0,0,0,0,0,0,2.3932,2.3934,2.3946,2.3945,2.3943,2.3945,2.3952,2.3967,2.393,2.3935,2.3927,2.3925,2.3936,2.3937,2.3941,2.3972,2.3972,2.3937,2.3938,2.3939,2.3939,0,0,0,0,0,0,0,2.3931,2.3934,2.3962,2.3946,2.3944,2.3935,2.3936,2.3955,2.3944,2.3934,2.3932,2.3933,2.3935,2.394,2.3941,2.3972,2.3937,2.3939,2.394,2.394,2.4034,2.4035,0,0,0,0,0,0,2.3933,2.3933,2.3962,2.3962,2.3934,2.3937,2.3937,2.3946,2.3943,2.3942,2.3934,2.3931,2.3938,2.3939,2.3941,2.3986,2.3939,2.394,2.3941,2.4032,2.4034,2.4036,0,0,0,0,0,0,2.3932,2.3936,2.3962,2.3947,2.395,2.394,2.3949,2.3947,2.3951,2.3943,2.3941,2.3941,2.3937,2.3939,2.3964,2.3986,2.3941,2.3942,2.403,2.4033,2.4035,2.4076,0,0,0,0,0,0,2.3931,2.3936,2.3951,2.3948,2.3951,2.3985,2.3951,2.3948,2.3954,2.395,2.3949,2.3947,2.3936,2.3962,2.3966,2.3987,2.3944,2.4028,2.4031,2.4034,2.4073,2.408,2.4086,0,0,0,0,0,2.393,2.3962,2.3952,2.3955,2.3969,2.3986,2.3988,2.3975,2.3956,2.3971,2.3965,2.3947,2.3983,2.3965,2.3969,2.3991,2.4027,2.403,2.4034,2.407,2.4079,2.4086,0,0,0,0,0,0,2.3968,2.3961,2.395,2.3982,2.3985,2.398,2.3998,2.3984,2.3992,2.3988,2.3971,2.3971,2.3999,2.3997,2.3977,2.4028,2.4002,2.4006,2.4028,2.4036,2.4042,2.4042,2.3945,0,0,0,0,0,2.398,2.3994,2.3988,2.4017,2.4019,2.4009,2.4016,2.4005,2.4008,2.4009,2.4005,2.4008,2.4019,2.4028,2.4038,2.4073,2.4072,2.409,2.4096,2.4101,2.4105,2.4123,2.4131,2.4047,2.4047,2.4047,0,0,2.4005,2.4003,2.4014,2.4025,2.4026,2.4041,2.401,2.4028,2.4039,2.4011,2.4035,2.4032,2.4034,2.4064,2.4077,2.4064,2.4128,2.4106,2.411,2.4111,2.4128,2.4136,2.4143,2.405,2.4049,2.4049,0,0,2.4058,2.4059,2.4083,2.4084,2.4087,2.4079,2.4085,2.4083,2.408,2.4104,2.4083,2.4096,2.4117,2.4119,2.4123,2.4177,2.416,2.4181,2.4214,2.4231,2.4238,2.4244,2.4263,2.427,2.4185,2.4185,2.4185,0,2.4089,2.4111,2.4097,2.4116,2.4121,2.4097,2.4121,2.4124,2.4129,2.4133,2.4118,2.4143,2.4143,2.4173,2.4186,2.419,2.4196,2.4181,2.4238,2.4244,2.4249,2.4267,2.4274,2.4187,2.4187,2.4187,2.4186,0,2.4149,2.4165,2.4184,2.419,2.4198,2.4219,2.4208,2.4217,2.4206,2.42,2.4224,2.4223,2.4232,2.4238,2.4228,2.4267,2.4259,2.4241,2.4214,2.426,2.4276,2.4283,2.4191,2.419,2.4189,2.4188,0,0,2.4226,2.4224,2.4231,2.4233,2.4234,2.4246,2.4266,2.4276,2.4284,2.4288,2.4305,2.4323,2.4307,2.4311,2.43,2.4316,2.4359,2.4296,2.4296,2.4308,2.4402,2.4415,2.4423,2.4348,2.4349,2.435,2.4401,0,2.4278,2.4313,2.43,2.4335,2.435,2.4327,2.4345,2.4347,2.4342,2.4353,2.4348,2.4361,2.4339,2.4341,2.4356,2.435,2.4377,2.4346,2.4362,2.4363,2.4362,2.4431,2.4445,2.4494,2.4408,2.4409,2.441,0,2.4343,2.435,2.4387,2.4385,2.4391,2.4407,2.4414,2.4426,2.4428,2.4423,2.4428,2.4414,2.4433,2.4406,2.4433,2.4412,2.4418,2.4416,2.4418,2.4419,2.4389,2.4434,2.4509,2.4516,2.442,2.4419,2.4418,0,2.4395,2.4414,2.4439,2.4442,2.444,2.4452,2.4451,2.4452,2.4458,2.4465,2.4469,2.4478,2.4482,2.4489,2.4478,2.4459,2.4506,2.4478,2.4502,2.4502,2.4513,2.4512,2.4589,2.4517,2.4517,2.4517,2.4517,0,2.4454,2.4478,2.4462,2.4477,2.4503,2.4488,2.4513,2.4511,2.4511,2.4525,2.4506,2.4519,2.4503,2.4515,2.4506,2.4529,2.4531,2.4528,2.4525,2.453,2.453,2.4533,2.4529,2.4519,2.4518,2.4518,2.4518,0,2.4517,2.4507,2.4533,2.4529,2.4529,2.4547,2.4544,2.4558,2.4552,2.4569,2.4573,2.4563,2.4576,2.4565,2.4577,2.4571,2.4602,2.4594,2.4601,2.4599,2.4624,2.4622,2.4706,2.4716,2.4637,2.4638,2.4638,0,2.4555,2.4573,2.4571,2.4579,2.458,2.4593,2.46,2.4586,2.4593,2.4597,2.461,2.4621,2.4629,2.4651,2.4645,2.4654,2.4647,2.4675,2.4648,2.4652,2.4647,2.4646,2.4647,2.4681,2.4682,2.4683,2.4683,0,2.4624,2.4618,2.4629,2.4637,2.4646,2.4652,2.4657,2.4664,2.465,2.4659,2.4672,2.4679,2.4691,2.4703,2.471,2.471,2.4694,2.4692,2.4698,2.4702,2.4706,2.4704,2.4616,2.469,2.4689,2.4689,2.4689,2.4688,2.4675,2.469,2.4691,2.4703,2.4705,2.4709,2.4722,2.4717,2.4728,2.4738,2.4729,2.4744,2.4745,2.4754,2.4755,2.4767,2.4755,2.4764,2.4766,2.4768,2.4772,2.4704,2.4768,2.4768,2.4768,2.4768,2.4767,0,2.4743,2.4742,2.4754,2.4761,2.477,2.4755,2.4759,2.4768,2.4782,2.4785,2.4793,2.4808,2.4819,2.4814,2.4823,2.4834,2.4827,2.4837,2.4836,2.4836,2.4782,2.4776,2.4842,2.4842,2.4842,2.4842,2.4842,2.4842,2.4779,2.4802,2.4797,2.4821,2.482,2.4836,2.484,2.4844,2.4846,2.4863,2.4872,2.4869,2.4868,2.4877,2.4887,2.4885,2.4889,2.4902,2.4897,2.4847,2.484,2.4833,2.4827,2.4903,2.4903,2.495,2.495,2.4951]}]]